This demonstration page uses our WeatherBlox Daily Observations layout. Learn more.

Left ArrowRight Arrow

Hourly Observations for January 17, 2017

Temp ( °F °C ) Dew Point ( °F °C ) Humidity (%) Winds ( mph kmh ) Pressure ( in mb ) Visibility ( mi km ) Precip ( " mm )
12:53 am 00:53 Clear 30 -1.1 24 -4.4 79 79 NNW 15 24 30.09 1019 10 16 0.00 0.00
1:53 am 01:53 Clear 28 -2.2 23 -5 81 81 NNW 13 20 30.11 1020 10 16 0.00 0.00
2:53 am 02:53 Clear 27 -2.8 22 -5.6 81 81 NNW 15 24 30.11 1020 10 16 0.00 0.00
3:53 am 03:53 Clear 26 -3.3 21 -6.1 81 81 NW 9 15 30.11 1020 10 16 0.00 0.00
4:53 am 04:53 Clear 25 -3.9 21 -6.1 85 85 NW 8 13 30.11 1020 10 16 0.00 0.00
5:53 am 05:53 Clear 25 -3.9 20 -6.7 81 81 NW 9 15 30.12 1020 10 16 0.00 0.00
6:53 am 06:53 Clear 24 -4.4 20 -6.7 84 84 WNW 9 15 30.13 1020 10 16 0.00 0.00
7:53 am 07:53 Clear 24 -4.4 20 -6.7 84 84 NW 6 9 30.13 1020 10 16 0.00 0.00
8:53 am 08:53 Sunny 25 -3.9 21 -6.1 85 85 WNW 8 13 30.16 1021 10 16 0.00 0.00
9:53 am 09:53 Sunny 28 -2.2 22 -5.6 78 78 WNW 8 13 30.17 1022 10 16 0.00 0.00
10:53 am 10:53 Sunny 30 -1.1 25 -3.9 82 82 NW 8 13 30.17 1022 10 16 0.00 0.00
11:53 am 11:53 Sunny 32 0 26 -3.3 79 79 WNW 8 13 30.15 1021 10 16 0.00 0.00
12:53 pm 12:53 Sunny 34 1.1 28 -2.2 79 79 W 8 13 30.12 1020 10 16 0.00 0.00
1:53 pm 13:53 Sunny 36 2.2 31 -0.6 82 82 W 7 11 30.12 1020 10 16 0.00 0.00
2:53 pm 14:53 Sunny 38 3.3 32 0 79 79 W 8 13 30.11 1020 10 16 0.00 0.00
3:53 pm 15:53 Sunny 40 4.4 33 0.6 77 77 WSW 7 11 30.12 1020 10 16 0.00 0.00
4:53 pm 16:53 Sunny 39 3.9 33 0.6 79 79 SW 3 6 30.13 1020 10 16 0.00 0.00
5:53 pm 17:53 Clear 36 2.2 32 0 86 86 S 3 6 30.13 1020 10 16 0.00 0.00
6:53 pm 18:53 Clear 35 1.7 32 0 89 89 S 5 7 30.12 1020 10 16 0.00 0.00
7:53 pm 19:53 Clear 34 1.1 31 -0.6 89 89 S 7 11 30.12 1020 10 16 0.00 0.00
8:53 pm 20:53 Clear 33 0.6 30 -1.1 89 89 SSW 7 11 30.12 1020 10 16 0.00 0.00
9:53 pm 21:53 Clear 34 1.1 29 -1.7 82 82 SSW 7 11 30.12 1020 10 16 0.00 0.00
10:53 pm 22:53 Clear 34 1.1 29 -1.7 82 82 SSW 9 15 30.13 1020 10 16 0.00 0.00
11:53 pm 23:53 Clear 35 1.7 28 -2.2 76 76 SSW 9 15 30.13 1020 10 16 0.00 0.00

Powered by AerisWeather